Location: *
(57.8420°S, 159.8600°W)
Time: 05:11:41
(UTC+00:00)

Cosmos 2322 Rocket - Pass Details

Date: 18 May 2021
Orbit: 831 x 852 km, 71.0° (Epoch: 20 June)

Event Time Altitude Azimuth Distance (km) Brightness Sun altitude
Rises 06:14:00 0° 251° (WSW) 3,416 6.5 -29.5°
Reaches altitude 10° 06:17:03 10° 235° (SW) 2,481 5.4 -29.9°
Maximum altitude 06:21:25 22° 185° (S) 1,780 4.0 -30.5°
Enters shadow 06:22:00 22° 176° (S) 1,795 3.9 -30.5°
